Home > Weather > Kãnpur > Past weeks

Flag for India Past Weather in Kãnpur, Uttar Pradesh, India — Yesterday and Last 2 Weeks

Now
91 °F

Broken clouds.


Feels Like: 100 °F
Forecast: 83 / 104 °F
Wind: 7 mph from North

Location: Lucknow / Amausi

Current Time: May 29, 2016 at 3:15:33 PM

Latest Report: May 29, 2016 at 2:30 PM


Visibility: 3 mi

Pressure: 29.62 "Hg

Humidity: 56%

Dew Point: 73 °F

Location of KãnpurLocation

Past Weather in Kãnpur — Graph

°F

Kãnpur Temperature Yesterday

Maximum temperature yesterday: 102 °F (at 4:00 PM)
Minimum temperature yesterday: 82 °F (at 5:00 AM)
Average temperature yesterday: 92 °F

High & Low Weather Summary for the Past Weeks

 TemperatureHumidityPressure
High115 °F (May 16, 1:30 PM)100% (May 22, 9:00 AM)29.77 "Hg (May 22, 9:00 AM)
Low72 °F (May 29, 3:00 AM)12% (May 16, 5:00 PM)29.39 "Hg (May 17, 6:30 PM)
Average94 °F50%29.51 "Hg
* Reported May 14 1:30 PM — May 29 2:00 PM, Kãnpur, Weather by CustomWeather, © 2016

Note: Actual official high and low records may vary slightly from our data, if they occured in-between our weather recording intervals... More about our weather records

Advertising

Kãnpur Weather History for the Previous 24 Hours

Scroll right to see more
 ConditionsComfort  
Time TempWeatherWind HumidityBarometerVisibility
2:00 PM
Sun, May 29
91 °FBroken clouds.7 mph49%29.65 "Hg3 mi
1:30 PM93 °FBroken clouds.7 mph49%29.65 "Hg3 mi
1:00 PM91 °FScattered clouds.5 mph52%29.65 "Hg3 mi
12:30 PM90 °FScattered clouds.2 mph55%29.65 "Hg3 mi
12:00 PM90 °FScattered clouds.2 mph55%29.68 "Hg3 mi
11:30 AM88 °FScattered clouds.6 mph62%29.65 "Hg3 mi
11:00 AM86 °FScattered clouds.6 mph66%29.65 "Hg3 mi
10:30 AM86 °FScattered clouds.5 mph55%29.65 "Hg3 mi
10:00 AM84 °FScattered clouds.2 mph70%29.68 "Hg3 mi
9:30 AM82 °FBroken clouds.2 mph70%29.65 "Hg3 mi
9:00 AM81 °FBroken clouds.2 mph74%29.62 "Hg2 mi
8:30 AM77 °FBroken clouds.2 mph79%29.62 "Hg2 mi
8:00 AM75 °FBroken clouds.3 mph83%29.59 "Hg2 mi
7:30 AM75 °FBroken clouds.6 mph83%29.56 "Hg2 mi
7:00 AM73 °FBroken clouds.14 mph89%29.56 "Hg2 mi
6:30 AM73 °FLight rain. Broken clouds.14 mph89%29.56 "Hg1 mi
6:00 AM73 °FLight rain. Broken clouds.9 mph89%29.65 "Hg1 mi
5:30 AM73 °FPartly cloudy.3 mph89%29.65 "Hg2 mi
5:00 AM73 °FLight rain. Partly cloudy.5 mph89%29.62 "Hg2 mi
4:00 AM72 °FPartly cloudy.3 mph94%29.62 "Hg2 mi
3:00 AM72 °FThundershowers. Partly cloudy.17 mph94%29.56 "Hg2 mi
1:00 AM82 °FThunderstorms. Mostly cloudy.12 mph62%29.59 "Hg1 mi
12:00 AM88 °FPartly cloudy.9 mph62%29.50 "Hg2 mi
11:00 PM
Sat, May 28
90 °FHaze.12 mph55%29.50 "Hg3 mi
10:00 PM91 °FHaze.12 mph56%29.50 "Hg3 mi
9:00 PM93 °FHaze.2 mph63%29.50 "Hg3 mi
8:30 PM93 °FHaze.2 mph59%29.50 "Hg3 mi
8:00 PM95 °FHaze.5 mph56%29.47 "Hg3 mi
7:30 PM95 °FHaze.6 mph53%29.47 "Hg3 mi
7:00 PM97 °FHaze.6 mph50%29.47 "Hg3 mi
6:30 PM99 °FHaze.5 mph47%29.45 "Hg3 mi
6:00 PM100 °FHaze.5 mph45%29.45 "Hg3 mi
5:30 PM100 °FHaze.2 mph45%29.47 "Hg3 mi
5:00 PM102 °FHaze.2 mph42%29.47 "Hg3 mi
4:30 PM102 °FHaze.No wind42%29.47 "Hg3 mi
4:00 PM102 °FHaze.No wind42%29.47 "Hg3 mi
3:30 PM100 °FHaze.2 mph45%29.47 "Hg3 mi
3:00 PM100 °FHaze.2 mph45%29.50 "Hg3 mi
Weather by CustomWeather, © 2016

See weather overviewHow to use our weather pages